Home   Weather   Gambier Islands   Past weeks

Flag for French Polynesia Past Weather in Gambier Islands, French Polynesia — Yesterday and Last 2 Weeks

Now
80 °F

Passing clouds.


Feels Like: 83 °F
Forecast: 73 / 79 °F
Wind: 7 mph from Southeast

Location: Rikitea

Current Time: Apr 26, 2017 at 4:38:47 pm

Latest Report: Apr 26, 2017 at 3:00 pm


Visibility: 25 mi

Pressure: 30.05 "Hg

Humidity: 69%

Dew Point: 69 °F

Location of Gambier IslandsLocation

Past Weather in Gambier Islands — Graph

°F

Gambier Islands Temperature Yesterday

Maximum temperature yesterday: 80 °F (at 12:00 pm)
Minimum temperature yesterday: 74 °F (at 5:00 am)
Average temperature yesterday: 76 °F

High & Low Weather Summary for the Past Weeks

 TemperatureHumidityPressure
High85 °F (Apr 13, 12:00 pm)96% (Apr 15, 12:00 pm)30.14 "Hg (Apr 15, 12:00 pm)
Low68 °F (Apr 16, 3:00 am)55% (Apr 18, 12:00 pm)29.69 "Hg (Apr 14, 4:00 pm)
Average76 °F77%29.96 "Hg
* Reported Apr 11 3:00 pm — Apr 26 3:00 pm, Gambier Islands, Weather by CustomWeather, © 2017

Note: Actual official high and low records may vary slightly from our data, if they occured in-between our weather recording intervals... More about our weather records

Advertising

Gambier Islands Weather History for the Previous 24 Hours

Scroll right to see more
 ConditionsComfort  
Time TempWeatherWind HumidityBarometerVisibility
3:00 pm
Wed, Apr 26
80 °FPassing clouds.7 mph69%30.05 "Hg25 mi
1:00 pm80 °FWarm.6 mph72%30.08 "HgN/A
12:00 pm79 °FPassing clouds.9 mph72%30.10 "Hg25 mi
11:00 am81 °FWarm.8 mph69%30.11 "HgN/A
10:00 am80 °FPassing clouds.9 mph73%30.12 "Hg25 mi
9:00 am80 °FPassing clouds.9 mph72%30.12 "Hg25 mi
8:00 am79 °FWarm.8 mph72%30.11 "HgN/A
7:00 am76 °FMild.3 mph76%30.10 "HgN/A
6:00 am75 °FScattered clouds.3 mph80%30.08 "Hg19 mi
5:00 am75 °FMild.5 mph80%30.06 "HgN/A
4:00 am75 °FMild.6 mph80%30.06 "HgN/A
3:00 am75 °FMild.8 mph82%30.06 "HgN/A
2:00 am76 °FMild.8 mph82%30.07 "HgN/A
1:00 am76 °FMild.9 mph81%30.09 "HgN/A
12:00 am76 °FMild.10 mph81%30.10 "HgN/A
11:00 pm
Tue, Apr 25
75 °FMild.9 mph85%30.11 "HgN/A
10:00 pm76 °FMild.8 mph80%30.11 "HgN/A
9:00 pm76 °FMild.10 mph81%30.11 "HgN/A
5:00 pm76 °FPassing clouds.10 mph78%30.04 "Hg19 mi
4:00 pm76 °FPassing clouds.9 mph78%30.03 "Hg25 mi
Weather by CustomWeather, © 2017

See weather overviewHow to use our weather pages